Time,TemperatureF,DewpointF,PressureIn,WindDirection,WindDirectionDegrees,WindSpeedMPH,WindSpeedGustMPH,Humidity,HourlyPrecipIn,Conditions,Clouds,dailyrainin,SoftwareType,DateUTC
2013-05-20 00:01:00,57.4,56.6,30.19,SE,136,9.2,9.2,97,0.00,-RA,,0.00,WeatherDisplay:10.37,2013-05-20 04:01:00,
2013-05-20 00:02:00,57.4,56.6,30.19,ESE,118,11.5,11.5,97,0.00,-RA,,0.00,WeatherDisplay:10.37,2013-05-20 04:02:00,
2013-05-20 00:07:00,57.4,56.6,30.19,SE,126,8.1,8.1,97,0.00,-RA,,0.00,WeatherDisplay:10.37,2013-05-20 04:07:00,
2013-05-20 00:12:00,57.4,56.6,30.19,SE,132,6.9,6.9,97,0.00,-RA,,0.00,WeatherDisplay:10.37,2013-05-20 04:12:00,
2013-05-20 00:17:00,57.4,56.6,30.18,SE,134,5.8,5.8,97,0.01,-RA,,0.01,WeatherDisplay:10.37,2013-05-20 04:17:00,
2013-05-20 00:22:00,57.5,56.7,30.18,SE,145,8.0,8.0,97,0.01,-RA,,0.01,WeatherDisplay:10.37,2013-05-20 04:22:00,
2013-05-20 00:27:00,57.5,56.7,30.17,SE,125,9.2,9.2,97,0.01,-RA,,0.01,WeatherDisplay:10.37,2013-05-20 04:27:00,
2013-05-20 00:33:00,57.5,56.7,30.17,SE,124,8.1,8.1,97,0.01,-RA,,0.01,WeatherDisplay:10.37,2013-05-20 04:33:00,
2013-05-20 00:38:00,57.6,56.8,30.16,SE,133,6.9,6.9,97,0.01,-RA,,0.01,WeatherDisplay:10.37,2013-05-20 04:38:00,
2013-05-20 00:43:00,57.6,56.8,30.16,SSE,149,9.2,9.2,97,0.01,-RA,,0.01,WeatherDisplay:10.37,2013-05-20 04:43:00,
2013-05-20 00:48:00,57.6,56.8,30.15,SE,136,8.1,8.1,97,0.01,-RA,,0.01,WeatherDisplay:10.37,2013-05-20 04:48:00,
2013-05-20 00:53:00,57.6,56.8,30.15,SSE,154,7.0,7.0,97,0.01,-RA,,0.01,WeatherDisplay:10.37,2013-05-20 04:53:00,
2013-05-20 00:58:00,57.6,56.8,30.15,SSE,153,5.8,5.8,97,0.01,-RA,,0.01,WeatherDisplay:10.37,2013-05-20 04:58:00,
2013-05-20 01:04:00,57.6,56.8,30.15,SSE,152,4.6,4.6,97,0.01,OVC,,0.01,WeatherDisplay:10.37,2013-05-20 05:04:00,
2013-05-20 01:09:00,57.7,56.9,30.15,SSE,152,3.5,3.5,97,0.01,OVC,,0.01,WeatherDisplay:10.37,2013-05-20 05:09:00,
2013-05-20 01:14:00,57.8,57.0,30.14,SSE,152,4.0,4.0,97,0.01,OVC,,0.01,WeatherDisplay:10.37,2013-05-20 05:14:00,
2013-05-20 01:19:00,57.9,57.1,30.14,SSE,152,4.6,4.6,97,0.00,OVC,,0.01,WeatherDisplay:10.37,2013-05-20 05:19:00,
2013-05-20 01:24:00,58.0,57.2,30.14,SSE,152,4.6,4.6,97,0.00,OVC,,0.01,WeatherDisplay:10.37,2013-05-20 05:24:00,
2013-05-20 01:30:00,58.1,57.3,30.14,SSE,152,4.6,4.6,97,0.00,OVC,,0.01,WeatherDisplay:10.37,2013-05-20 05:30:00,
2013-05-20 01:35:00,58.0,57.2,30.13,SSE,152,3.5,3.5,97,0.00,OVC,,0.01,WeatherDisplay:10.37,2013-05-20 05:35:00,
2013-05-20 01:40:00,58.1,57.3,30.14,SSE,152,2.3,2.3,97,0.00,OVC,,0.01,WeatherDisplay:10.37,2013-05-20 05:40:00,
2013-05-20 01:45:00,58.2,57.4,30.14,SSE,152,1.1,1.1,97,0.00,OVC,,0.01,WeatherDisplay:10.37,2013-05-20 05:45:00,
2013-05-20 01:50:00,58.3,57.5,30.14,SSE,152,0.0,0.0,97,0.01,RA,,0.02,WeatherDisplay:10.37,2013-05-20 05:50:00,
2013-05-20 01:56:00,58.4,57.6,30.14,SSE,152,0.0,0.0,97,0.01,RA,,0.02,WeatherDisplay:10.37,2013-05-20 05:56:00,
2013-05-20 02:01:00,58.4,57.6,30.13,SSE,152,0.0,0.0,97,0.01,OVC,,0.02,WeatherDisplay:10.37,2013-05-20 06:01:00,
2013-05-20 02:06:00,58.6,57.8,30.13,SSE,152,0.0,0.0,97,0.01,OVC,,0.02,WeatherDisplay:10.37,2013-05-20 06:06:00,
2013-05-20 02:11:00,58.6,57.8,30.13,South,172,5.8,5.8,97,0.02,RA,,0.03,WeatherDisplay:10.37,2013-05-20 06:11:00,
2013-05-20 02:16:00,58.7,57.9,30.13,South,172,4.0,4.0,97,0.02,RA,,0.03,WeatherDisplay:10.37,2013-05-20 06:16:00,
2013-05-20 02:22:00,58.7,57.9,30.12,SSW,196,6.9,6.9,97,0.02,OVC,,0.03,WeatherDisplay:10.37,2013-05-20 06:22:00,
2013-05-20 02:27:00,58.8,58.0,30.12,SSE,163,5.8,5.8,97,0.02,OVC,,0.03,WeatherDisplay:10.37,2013-05-20 06:27:00,
2013-05-20 02:32:00,58.8,58.0,30.12,SSE,167,5.8,5.8,97,0.02,OVC,,0.03,WeatherDisplay:10.37,2013-05-20 06:32:00,
2013-05-20 02:37:00,58.8,58.0,30.12,SSE,167,3.5,3.5,97,0.02,OVC,,0.03,WeatherDisplay:10.37,2013-05-20 06:37:00,
2013-05-20 02:43:00,58.9,58.1,30.12,SSE,167,5.0,5.0,97,0.02,OVC,,0.03,WeatherDisplay:10.37,2013-05-20 06:43:00,
2013-05-20 02:48:00,58.8,58.0,30.12,South,180,5.8,5.8,97,0.01,OVC,,0.03,WeatherDisplay:10.37,2013-05-20 06:48:00,
2013-05-20 02:53:00,58.7,57.9,30.11,South,180,0.0,0.0,97,0.01,OVC,,0.03,WeatherDisplay:10.37,2013-05-20 06:53:00,
2013-05-20 02:58:00,58.7,57.9,30.11,South,180,0.0,0.0,97,0.01,OVC,,0.03,WeatherDisplay:10.37,2013-05-20 06:58:00,
2013-05-20 03:03:00,58.7,57.9,30.11,South,180,0.0,0.0,97,0.01,OVC,,0.03,WeatherDisplay:10.37,2013-05-20 07:03:00,
2013-05-20 03:09:00,58.7,57.9,30.11,South,180,0.0,0.0,97,0.01,OVC,,0.03,WeatherDisplay:10.37,2013-05-20 07:09:00,
2013-05-20 03:14:00,58.7,57.9,30.11,South,180,0.0,0.0,97,0.00,OVC,,0.03,WeatherDisplay:10.37,2013-05-20 07:14:00,
2013-05-20 03:19:00,58.8,58.0,30.11,South,180,0.0,0.0,97,0.00,OVC,,0.03,WeatherDisplay:10.37,2013-05-20 07:19:00,
2013-05-20 03:24:00,58.8,58.0,30.10,South,180,1.1,1.1,97,0.00,OVC,,0.03,WeatherDisplay:10.37,2013-05-20 07:24:00,
2013-05-20 03:29:00,58.9,58.1,30.10,South,180,1.1,1.1,97,0.00,OVC,,0.03,WeatherDisplay:10.37,2013-05-20 07:29:00,
2013-05-20 03:34:00,58.8,58.0,30.10,South,180,0.0,0.0,97,0.00,OVC,,0.03,WeatherDisplay:10.37,2013-05-20 07:34:00,
2013-05-20 03:40:00,58.9,58.1,30.10,South,180,1.1,1.1,97,0.00,OVC,,0.03,WeatherDisplay:10.37,2013-05-20 07:40:00,
2013-05-20 03:45:00,58.9,58.0,30.10,South,180,0.0,2.0,97,0.00,RA,,0.03,WeatherDisplay:10.37,2013-05-20 07:45:00,
2013-05-20 03:50:00,58.9,58.1,30.10,South,180,0.0,0.0,97,0.00,OVC,,0.03,WeatherDisplay:10.37,2013-05-20 07:50:00,
2013-05-20 03:55:00,58.8,58.0,30.09,South,180,1.1,1.1,97,0.00,OVC,,0.03,WeatherDisplay:10.37,2013-05-20 07:55:00,
2013-05-20 04:01:00,58.7,57.9,30.09,South,180,1.0,1.0,97,0.00,,,0.03,WeatherDisplay:10.37,2013-05-20 08:01:00,
2013-05-20 04:06:00,58.8,58.0,30.09,South,180,3.0,3.0,97,0.00,,,0.03,WeatherDisplay:10.37,2013-05-20 08:06:00,
2013-05-20 04:11:00,58.8,58.0,30.09,South,180,3.5,3.5,97,0.00,,,0.03,WeatherDisplay:10.37,2013-05-20 08:11:00,
2013-05-20 04:16:00,58.7,57.9,30.09,South,180,1.1,1.1,97,0.00,,,0.03,WeatherDisplay:10.37,2013-05-20 08:16:00,
2013-05-20 04:21:00,58.7,57.9,30.08,South,180,1.1,1.1,97,0.00,,,0.03,WeatherDisplay:10.37,2013-05-20 08:21:00,
2013-05-20 04:26:00,58.7,57.9,30.08,South,180,0.0,0.0,97,0.00,,,0.03,WeatherDisplay:10.37,2013-05-20 08:26:00,
2013-05-20 04:31:00,58.7,57.9,30.08,South,180,0.0,0.0,97,0.00,,,0.03,WeatherDisplay:10.37,2013-05-20 08:31:00,
2013-05-20 04:36:00,58.8,58.0,30.08,South,180,2.3,0.0,97,0.00,,,0.03,WeatherDisplay:10.37,2013-05-20 08:36:00,
2013-05-20 04:42:00,58.7,57.9,30.08,South,180,4.6,4.6,97,0.00,,,0.03,WeatherDisplay:10.37,2013-05-20 08:42:00,
2013-05-20 04:47:00,58.7,57.9,30.08,South,180,3.5,3.5,97,0.00,,,0.03,WeatherDisplay:10.37,2013-05-20 08:47:00,
2013-05-20 04:52:00,58.7,57.9,30.08,South,180,2.3,2.3,97,0.00,,,0.03,WeatherDisplay:10.37,2013-05-20 08:52:00,
2013-05-20 04:57:00,58.7,57.9,30.08,South,180,3.5,3.5,97,0.00,,,0.03,WeatherDisplay:10.37,2013-05-20 08:57:00,
2013-05-20 05:02:00,58.7,57.9,30.08,South,180,3.5,3.5,97,0.00,,,0.03,WeatherDisplay:10.37,2013-05-20 09:02:00,
2013-05-20 05:07:00,58.7,57.9,30.07,South,180,3.5,3.5,97,0.00,,,0.03,WeatherDisplay:10.37,2013-05-20 09:07:00,
2013-05-20 05:12:00,58.6,57.8,30.07,South,180,3.5,3.5,97,0.00,,,0.03,WeatherDisplay:10.37,2013-05-20 09:12:00,
2013-05-20 05:18:00,58.6,57.8,30.07,South,182,3.5,3.5,97,0.00,,,0.03,WeatherDisplay:10.37,2013-05-20 09:18:00,
2013-05-20 05:23:00,58.6,57.8,30.07,South,182,3.5,3.5,97,0.00,,,0.03,WeatherDisplay:10.37,2013-05-20 09:23:00,
2013-05-20 05:28:00,58.6,57.8,30.06,South,182,3.5,3.5,97,0.00,,,0.03,WeatherDisplay:10.37,2013-05-20 09:28:00,
2013-05-20 05:33:00,58.6,57.8,30.06,South,182,3.5,3.5,97,0.00,,,0.03,WeatherDisplay:10.37,2013-05-20 09:33:00,
2013-05-20 05:38:00,58.6,57.8,30.06,South,182,3.5,3.5,97,0.00,,,0.03,WeatherDisplay:10.37,2013-05-20 09:38:00,
2013-05-20 05:44:00,58.6,58.0,30.07,South,182,0.0,0.0,98,0.00,,,0.03,WeatherDisplay:10.37,2013-05-20 09:44:00,
2013-05-20 05:49:00,58.6,58.0,30.07,South,182,0.0,0.0,98,0.00,,,0.03,WeatherDisplay:10.37,2013-05-20 09:49:00,
2013-05-20 05:54:00,58.6,57.8,30.07,South,182,0.0,0.0,97,0.00,,,0.03,WeatherDisplay:10.37,2013-05-20 09:54:00,
2013-05-20 05:59:00,58.6,58.0,30.07,South,182,0.0,0.0,98,0.00,,,0.03,WeatherDisplay:10.37,2013-05-20 09:59:00,
2013-05-20 06:04:00,58.6,58.0,30.07,South,182,2.3,2.3,98,0.00,,,0.03,WeatherDisplay:10.37,2013-05-20 10:04:00,
2013-05-20 06:09:00,58.6,58.0,30.07,South,182,3.5,3.5,98,0.00,,,0.03,WeatherDisplay:10.37,2013-05-20 10:09:00,
2013-05-20 06:15:00,58.6,58.0,30.07,South,182,0.0,0.0,98,0.00,,,0.03,WeatherDisplay:10.37,2013-05-20 10:15:00,
2013-05-20 06:20:00,58.7,58.1,30.07,South,182,2.3,2.3,98,0.00,,,0.03,WeatherDisplay:10.37,2013-05-20 10:20:00,
2013-05-20 06:25:00,58.7,58.1,30.07,South,182,2.0,2.0,98,0.00,,,0.03,WeatherDisplay:10.37,2013-05-20 10:25:00,
2013-05-20 06:30:00,58.7,58.1,30.06,South,182,0.0,0.0,98,0.00,,,0.03,WeatherDisplay:10.37,2013-05-20 10:30:00,
2013-05-20 06:35:00,58.7,58.1,30.06,South,182,1.1,1.1,98,0.00,,,0.03,WeatherDisplay:10.37,2013-05-20 10:35:00,
2013-05-20 06:41:00,58.7,58.1,30.06,South,182,1.1,1.1,98,0.00,,,0.03,WeatherDisplay:10.37,2013-05-20 10:41:00,
2013-05-20 06:46:00,58.8,58.2,30.06,South,182,1.1,0.0,98,0.00,,,0.03,WeatherDisplay:10.37,2013-05-20 10:46:00,
2013-05-20 06:51:00,58.9,58.3,30.07,South,182,2.3,2.3,98,0.00,,,0.03,WeatherDisplay:10.37,2013-05-20 10:51:00,
2013-05-20 06:56:00,58.9,58.3,30.07,South,182,0.0,0.0,98,0.00,,,0.03,WeatherDisplay:10.37,2013-05-20 10:56:00,
2013-05-20 07:02:00,58.9,58.3,30.07,South,182,2.3,2.3,98,0.00,,,0.03,WeatherDisplay:10.37,2013-05-20 11:02:00,
2013-05-20 07:07:00,59.0,58.4,30.08,South,182,0.0,0.0,98,0.00,,,0.03,WeatherDisplay:10.37,2013-05-20 11:07:00,
2013-05-20 07:12:00,59.0,58.4,30.08,South,182,2.3,0.0,98,0.00,,,0.03,WeatherDisplay:10.37,2013-05-20 11:12:00,
2013-05-20 07:17:00,59.0,58.4,30.09,South,182,3.5,3.5,98,0.00,,,0.03,WeatherDisplay:10.37,2013-05-20 11:17:00,
2013-05-20 07:23:00,59.0,58.4,30.09,SW,217,5.0,5.0,98,0.00,,,0.03,WeatherDisplay:10.37,2013-05-20 11:23:00,
2013-05-20 07:28:00,59.1,58.5,30.08,SW,217,3.5,3.5,98,0.00,,,0.03,WeatherDisplay:10.37,2013-05-20 11:28:00,
2013-05-20 07:33:00,59.1,58.5,30.08,SW,217,0.0,0.0,98,0.00,,,0.03,WeatherDisplay:10.37,2013-05-20 11:33:00,
2013-05-20 07:39:00,59.1,58.5,30.08,SW,217,1.1,0.0,98,0.00,,,0.03,WeatherDisplay:10.37,2013-05-20 11:39:00,
2013-05-20 07:44:00,59.1,58.5,30.08,SW,217,1.1,1.1,98,0.00,,,0.03,WeatherDisplay:10.37,2013-05-20 11:44:00,
2013-05-20 07:49:00,59.2,58.6,30.08,SW,217,3.5,3.5,98,0.00,,,0.03,WeatherDisplay:10.37,2013-05-20 11:49:00,
2013-05-20 07:54:00,59.4,58.8,30.08,SW,217,0.0,0.0,98,0.00,,,0.03,WeatherDisplay:10.37,2013-05-20 11:54:00,
2013-05-20 07:59:00,59.4,58.8,30.07,SW,217,2.0,2.0,98,0.00,,,0.03,WeatherDisplay:10.37,2013-05-20 11:59:00,
2013-05-20 08:05:00,59.5,58.9,30.08,SW,217,0.0,0.0,98,0.00,OVC,,0.03,WeatherDisplay:10.37,2013-05-20 12:05:00,
2013-05-20 08:10:00,59.5,58.9,30.07,SW,217,2.0,2.0,98,0.00,OVC,,0.03,WeatherDisplay:10.37,2013-05-20 12:10:00,
2013-05-20 08:15:00,59.7,59.1,30.08,SW,217,1.1,0.0,98,0.00,OVC,,0.03,WeatherDisplay:10.37,2013-05-20 12:15:00,
2013-05-20 08:20:00,59.7,59.1,30.08,SW,217,4.0,4.0,98,0.00,OVC,,0.03,WeatherDisplay:10.37,2013-05-20 12:20:00,
2013-05-20 08:26:00,59.8,59.2,30.07,SW,217,3.0,3.0,98,0.00,OVC,,0.03,WeatherDisplay:10.37,2013-05-20 12:26:00,
2013-05-20 08:31:00,60.0,59.4,30.08,SW,217,3.5,3.5,98,0.00,OVC,,0.03,WeatherDisplay:10.37,2013-05-20 12:31:00,
2013-05-20 08:36:00,60.1,59.5,30.08,SW,217,2.3,2.3,98,0.00,OVC,,0.03,WeatherDisplay:10.37,2013-05-20 12:36:00,
2013-05-20 08:41:00,60.3,59.7,30.08,SW,217,3.0,3.0,98,0.00,OVC,,0.03,WeatherDisplay:10.37,2013-05-20 12:41:00,
2013-05-20 08:46:00,60.3,59.7,30.08,SW,217,0.0,0.1,98,0.00,OVC,,0.03,WeatherDisplay:10.37,2013-05-20 12:46:00,
2013-05-20 08:52:00,60.5,59.9,30.08,SW,217,1.1,1.1,98,0.00,OVC,,0.03,WeatherDisplay:10.37,2013-05-20 12:52:00,
2013-05-20 08:57:00,60.6,60.0,30.08,SW,217,1.1,0.0,98,0.00,OVC,,0.03,WeatherDisplay:10.37,2013-05-20 12:57:00,
2013-05-20 09:02:00,60.7,60.1,30.09,SW,217,1.1,1.1,98,0.00,OVC,,0.03,WeatherDisplay:10.37,2013-05-20 13:02:00,
2013-05-20 09:07:00,60.9,60.3,30.09,SW,217,0.0,0.0,98,0.00,OVC,,0.03,WeatherDisplay:10.37,2013-05-20 13:07:00,
2013-05-20 09:13:00,60.9,60.3,30.08,SW,217,1.1,1.1,98,0.00,OVC,,0.03,WeatherDisplay:10.37,2013-05-20 13:13:00,
2013-05-20 09:18:00,60.9,60.3,30.08,SW,217,3.5,3.5,98,0.00,OVC,,0.03,WeatherDisplay:10.37,2013-05-20 13:18:00,
2013-05-20 09:23:00,61.0,60.4,30.08,SW,217,2.3,2.3,98,0.00,OVC,,0.03,WeatherDisplay:10.37,2013-05-20 13:23:00,
2013-05-20 09:28:00,61.3,60.7,30.08,SSW,200,3.5,3.5,98,0.00,OVC,,0.03,WeatherDisplay:10.37,2013-05-20 13:28:00,
2013-05-20 09:33:00,62.0,61.4,30.08,SSW,193,3.5,3.5,98,0.00,OVC,,0.03,WeatherDisplay:10.37,2013-05-20 13:33:00,
2013-05-20 09:38:00,62.4,61.5,30.08,SSW,193,5.8,5.8,97,0.00,OVC,,0.03,WeatherDisplay:10.37,2013-05-20 13:38:00,
2013-05-20 09:44:00,62.3,61.4,30.08,South,176,4.6,4.6,97,0.00,OVC,,0.03,WeatherDisplay:10.37,2013-05-20 13:44:00,
2013-05-20 09:49:00,62.4,61.5,30.08,SSW,197,2.3,2.3,97,0.00,OVC,,0.03,WeatherDisplay:10.37,2013-05-20 13:49:00,
2013-05-20 09:54:00,62.5,61.6,30.08,SSW,197,3.5,3.5,97,0.00,OVC,,0.03,WeatherDisplay:10.37,2013-05-20 13:54:00,
2013-05-20 09:59:00,62.7,61.8,30.07,SW,218,4.0,4.0,97,0.00,OVC,,0.03,WeatherDisplay:10.37,2013-05-20 13:59:00,
2013-05-20 10:04:00,62.9,61.7,30.07,South,187,5.8,5.8,96,0.00,OVC,,0.03,WeatherDisplay:10.37,2013-05-20 14:04:00,
2013-05-20 10:09:00,63.0,61.8,30.06,South,188,10.4,10.4,96,0.00,OVC,,0.03,WeatherDisplay:10.37,2013-05-20 14:09:00,
2013-05-20 10:14:00,62.9,61.7,30.07,South,182,7.0,7.0,96,0.00,OVC,,0.03,WeatherDisplay:10.37,2013-05-20 14:14:00,
2013-05-20 10:20:00,62.9,61.7,30.07,SSW,212,10.4,10.4,96,0.00,OVC,,0.03,WeatherDisplay:10.37,2013-05-20 14:20:00,
2013-05-20 10:25:00,62.9,61.4,30.07,SW,215,8.1,8.1,95,0.00,OVC,,0.03,WeatherDisplay:10.37,2013-05-20 14:25:00,
2013-05-20 10:30:00,62.9,61.4,30.07,SW,218,6.0,10.0,95,0.00,RA,,0.03,WeatherDisplay:10.37,2013-05-20 14:30:00,
2013-05-20 10:35:00,63.1,61.6,30.07,SSW,210,11.0,11.0,95,0.00,OVC,,0.03,WeatherDisplay:10.37,2013-05-20 14:35:00,
2013-05-20 10:40:00,63.2,61.7,30.07,SW,234,4.6,4.6,95,0.00,OVC,,0.03,WeatherDisplay:10.37,2013-05-20 14:40:00,
2013-05-20 10:45:00,63.4,61.6,30.07,West,263,8.1,8.1,94,0.00,OVC,,0.03,WeatherDisplay:10.37,2013-05-20 14:45:00,
2013-05-20 10:50:00,63.5,61.7,30.07,WSW,249,9.2,9.2,94,0.00,OVC,,0.03,WeatherDisplay:10.37,2013-05-20 14:50:00,
2013-05-20 10:56:00,63.7,61.9,30.07,West,278,4.6,4.6,94,0.00,OVC,,0.03,WeatherDisplay:10.37,2013-05-20 14:56:00,
2013-05-20 11:01:00,63.9,61.8,30.07,SSW,210,4.6,4.6,93,0.00,OVC,,0.03,WeatherDisplay:10.37,2013-05-20 15:01:00,
2013-05-20 11:06:00,64.1,62.0,30.06,SW,217,6.9,6.9,93,0.00,OVC,,0.03,WeatherDisplay:10.37,2013-05-20 15:06:00,
2013-05-20 11:11:00,64.3,62.2,30.06,West,261,6.0,6.0,93,0.00,OVC,,0.03,WeatherDisplay:10.37,2013-05-20 15:11:00,
2013-05-20 11:16:00,64.4,62.3,30.06,WNW,289,5.8,5.8,93,0.00,OVC,,0.03,WeatherDisplay:10.37,2013-05-20 15:16:00,
2013-05-20 11:22:00,64.5,62.4,30.05,West,269,4.6,4.6,93,0.00,OVC,,0.03,WeatherDisplay:10.37,2013-05-20 15:22:00,
2013-05-20 11:27:00,64.7,62.3,30.05,WSW,242,6.9,6.9,92,0.00,OVC,,0.03,WeatherDisplay:10.37,2013-05-20 15:27:00,
2013-05-20 11:32:00,64.9,62.5,30.05,NW,325,4.6,4.6,92,0.00,OVC,,0.03,WeatherDisplay:10.37,2013-05-20 15:32:00,
2013-05-20 11:37:00,65.2,62.5,30.05,WNW,294,6.9,6.9,91,0.00,OVC,,0.03,WeatherDisplay:10.37,2013-05-20 15:37:00,
2013-05-20 11:42:00,65.7,63.0,30.04,SSW,211,4.6,4.6,91,0.00,OVC,,0.03,WeatherDisplay:10.37,2013-05-20 15:42:00,
2013-05-20 11:48:00,65.9,62.9,30.04,WNW,287,8.1,8.1,90,0.00,OVC,,0.03,WeatherDisplay:10.37,2013-05-20 15:48:00,
2013-05-20 11:53:00,66.2,62.9,30.04,West,268,3.5,3.5,89,0.00,OVC,,0.03,WeatherDisplay:10.37,2013-05-20 15:53:00,
2013-05-20 11:58:00,66.6,62.9,30.03,WSW,242,9.2,9.2,88,0.00,OVC,,0.03,WeatherDisplay:10.37,2013-05-20 15:58:00,
2013-05-20 12:03:00,66.8,63.1,30.03,SW,215,8.1,8.1,88,0.00,OVC,,0.03,WeatherDisplay:10.37,2013-05-20 16:03:00,
2013-05-20 12:08:00,67.1,63.4,30.03,SW,229,6.0,6.0,88,0.00,OVC,,0.03,WeatherDisplay:10.37,2013-05-20 16:08:00,
2013-05-20 12:13:00,67.8,64.1,30.03,SSW,202,7.0,7.0,88,0.00,OVC,,0.03,WeatherDisplay:10.37,2013-05-20 16:13:00,
2013-05-20 12:18:00,67.9,63.9,30.02,WSW,240,4.6,4.6,87,0.00,OVC,,0.03,WeatherDisplay:10.37,2013-05-20 16:18:00,
2013-05-20 12:24:00,68.3,63.9,30.02,SSW,206,5.8,5.8,86,0.00,OVC,,0.03,WeatherDisplay:10.37,2013-05-20 16:24:00,
2013-05-20 12:29:00,68.3,63.9,30.02,SSW,195,5.8,5.8,86,0.00,OVC,,0.03,WeatherDisplay:10.37,2013-05-20 16:29:00,
2013-05-20 12:34:00,68.5,64.1,30.02,South,191,6.0,6.0,86,0.00,OVC,,0.03,WeatherDisplay:10.37,2013-05-20 16:34:00,
2013-05-20 12:39:00,68.8,64.4,30.01,SSW,200,6.9,6.9,86,0.00,OVC,,0.03,WeatherDisplay:10.37,2013-05-20 16:39:00,
2013-05-20 12:44:00,69.7,65.0,30.01,WSW,251,6.9,6.9,85,0.00,OVC,,0.03,WeatherDisplay:10.37,2013-05-20 16:44:00,
2013-05-20 12:49:00,69.4,64.4,30.01,SSW,201,4.0,4.0,84,0.00,OVC,,0.03,WeatherDisplay:10.37,2013-05-20 16:49:00,
2013-05-20 12:55:00,69.8,64.7,30.01,South,178,5.8,5.8,84,0.00,OVC,,0.03,WeatherDisplay:10.37,2013-05-20 16:55:00,
2013-05-20 13:00:00,69.3,64.3,30.01,SSW,201,6.0,12.0,84,0.00,OVC,,0.03,WeatherDisplay:10.37,2013-05-20 17:00:00,
2013-05-20 13:05:00,69.2,64.2,30.00,SW,216,9.2,9.2,84,0.00,BKN,,0.03,WeatherDisplay:10.37,2013-05-20 17:05:00,
2013-05-20 13:10:00,69.3,64.3,30.00,South,191,8.1,8.1,84,0.00,BKN,,0.03,WeatherDisplay:10.37,2013-05-20 17:10:00,
2013-05-20 13:15:00,69.6,64.2,30.00,South,184,5.8,5.8,83,0.00,BKN,,0.03,WeatherDisplay:10.37,2013-05-20 17:15:00,
2013-05-20 13:20:00,69.8,64.7,30.00,WSW,238,9.0,9.0,84,0.00,BKN,,0.03,WeatherDisplay:10.37,2013-05-20 17:20:00,
2013-05-20 13:26:00,69.8,64.7,30.00,SW,231,11.5,11.5,84,0.00,BKN,,0.03,WeatherDisplay:10.37,2013-05-20 17:26:00,
2013-05-20 13:31:00,69.7,64.3,29.99,SSW,213,10.4,10.4,83,0.00,BKN,,0.03,WeatherDisplay:10.37,2013-05-20 17:31:00,
2013-05-20 13:36:00,70.1,64.7,29.99,SW,223,9.2,9.2,83,0.00,BKN,,0.03,WeatherDisplay:10.37,2013-05-20 17:36:00,
2013-05-20 13:41:00,70.2,64.8,29.99,SW,220,12.7,12.7,83,0.00,BKN,,0.03,WeatherDisplay:10.37,2013-05-20 17:41:00,
2013-05-20 13:46:00,70.1,64.3,29.99,West,260,11.5,11.5,82,0.00,BKN,,0.03,WeatherDisplay:10.37,2013-05-20 17:46:00,
2013-05-20 13:51:00,70.6,65.2,29.99,SW,230,12.0,12.0,83,0.00,BKN,,0.03,WeatherDisplay:10.37,2013-05-20 17:51:00,
2013-05-20 13:56:00,71.0,65.2,29.99,SW,216,11.5,11.5,82,0.00,BKN,,0.03,WeatherDisplay:10.37,2013-05-20 17:56:00,
2013-05-20 14:02:00,71.4,65.3,29.99,SW,227,6.0,6.0,81,0.00,BKN,,0.03,WeatherDisplay:10.37,2013-05-20 18:02:00,
2013-05-20 14:07:00,71.7,65.6,29.99,SSW,193,12.7,12.7,81,0.00,BKN,,0.03,WeatherDisplay:10.37,2013-05-20 18:07:00,
2013-05-20 14:12:00,72.0,65.8,29.99,SW,228,11.0,11.0,81,0.00,BKN,,0.03,WeatherDisplay:10.37,2013-05-20 18:12:00,
2013-05-20 14:18:00,71.7,65.2,29.99,South,191,8.0,8.0,80,0.00,BKN,,0.03,WeatherDisplay:10.37,2013-05-20 18:18:00,
2013-05-20 14:23:00,71.8,65.7,29.98,South,173,12.0,12.0,81,0.00,BKN,,0.03,WeatherDisplay:10.37,2013-05-20 18:23:00,
2013-05-20 14:28:00,72.4,65.9,29.98,SW,222,9.2,9.2,80,0.00,BKN,,0.03,WeatherDisplay:10.37,2013-05-20 18:28:00,
2013-05-20 14:33:00,72.6,65.7,29.98,SSW,207,9.2,9.2,79,0.00,BKN,,0.03,WeatherDisplay:10.37,2013-05-20 18:33:00,
2013-05-20 14:38:00,72.9,66.0,29.98,SW,219,12.7,12.7,79,0.00,BKN,,0.03,WeatherDisplay:10.37,2013-05-20 18:38:00,
2013-05-20 14:44:00,73.0,66.1,29.98,South,190,12.7,12.7,79,0.00,BKN,,0.03,WeatherDisplay:10.37,2013-05-20 18:44:00,
2013-05-20 14:49:00,72.9,66.0,29.97,SSW,213,15.0,15.0,79,0.00,BKN,,0.03,WeatherDisplay:10.37,2013-05-20 18:49:00,
2013-05-20 14:54:00,73.3,66.4,29.97,SW,215,11.5,11.5,79,0.00,BKN,,0.03,WeatherDisplay:10.37,2013-05-20 18:54:00,
2013-05-20 14:59:00,73.8,66.5,29.97,SSW,207,15.0,15.0,78,0.00,BKN,,0.03,WeatherDisplay:10.37,2013-05-20 18:59:00,
2013-05-20 15:05:00,73.7,66.4,29.97,SW,222,17.3,17.3,78,0.00,BKN,,0.03,WeatherDisplay:10.37,2013-05-20 19:05:00,
2013-05-20 15:10:00,73.5,66.2,29.97,WSW,246,11.5,11.5,78,0.00,BKN,,0.03,WeatherDisplay:10.37,2013-05-20 19:10:00,
2013-05-20 15:15:00,73.5,66.2,29.97,SSW,196,11.5,11.5,78,0.00,BKN,,0.03,WeatherDisplay:10.37,2013-05-20 19:15:00,
2013-05-20 15:20:00,73.7,66.4,29.97,WSW,241,11.5,11.5,78,0.00,BKN,,0.03,WeatherDisplay:10.37,2013-05-20 19:20:00,
2013-05-20 15:25:00,73.7,66.4,29.97,SSW,198,17.3,17.3,78,0.00,BKN,,0.03,WeatherDisplay:10.37,2013-05-20 19:25:00,
2013-05-20 15:31:00,73.9,66.6,29.97,SW,226,12.0,12.0,78,0.00,BKN,,0.03,WeatherDisplay:10.37,2013-05-20 19:31:00,
2013-05-20 15:36:00,74.0,66.3,29.97,SSW,199,16.1,16.1,77,0.00,BKN,,0.03,WeatherDisplay:10.37,2013-05-20 19:36:00,
2013-05-20 15:41:00,73.9,66.6,29.97,SW,231,11.5,11.5,78,0.00,BKN,,0.03,WeatherDisplay:10.37,2013-05-20 19:41:00,
2013-05-20 15:46:00,74.6,66.9,29.97,SW,226,11.0,11.0,77,0.00,BKN,,0.03,WeatherDisplay:10.37,2013-05-20 19:46:00,
2013-05-20 15:51:00,74.4,66.7,29.96,West,273,11.5,11.5,77,0.00,BKN,,0.03,WeatherDisplay:10.37,2013-05-20 19:51:00,
2013-05-20 15:56:00,74.4,66.7,29.96,SW,215,12.7,12.7,77,0.00,BKN,,0.03,WeatherDisplay:10.37,2013-05-20 19:56:00,
2013-05-20 16:02:00,74.7,67.0,29.95,WSW,245,9.2,9.2,77,0.00,BKN,,0.03,WeatherDisplay:10.37,2013-05-20 20:02:00,
2013-05-20 16:07:00,74.9,66.8,29.95,WSW,251,10.4,10.4,76,0.00,BKN,,0.03,WeatherDisplay:10.37,2013-05-20 20:07:00,
2013-05-20 16:12:00,75.0,66.9,29.96,SW,219,12.0,12.0,76,0.00,BKN,,0.03,WeatherDisplay:10.37,2013-05-20 20:12:00,
2013-05-20 16:17:00,75.0,66.5,29.95,WSW,251,11.5,11.5,75,0.00,BKN,,0.03,WeatherDisplay:10.37,2013-05-20 20:17:00,
2013-05-20 16:23:00,75.3,66.8,29.95,SW,224,10.4,10.4,75,0.00,BKN,,0.03,WeatherDisplay:10.37,2013-05-20 20:23:00,
2013-05-20 16:28:00,75.5,67.0,29.95,WSW,238,13.8,13.8,75,0.00,BKN,,0.03,WeatherDisplay:10.37,2013-05-20 20:28:00,
2013-05-20 16:33:00,75.5,66.6,29.95,SW,223,13.8,13.8,74,0.00,BKN,,0.03,WeatherDisplay:10.37,2013-05-20 20:33:00,
2013-05-20 16:38:00,75.5,66.2,29.95,WSW,240,18.0,18.0,73,0.00,BKN,,0.03,WeatherDisplay:10.37,2013-05-20 20:38:00,
2013-05-20 16:43:00,75.6,66.3,29.95,WSW,242,13.0,13.0,73,0.00,BKN,,0.03,WeatherDisplay:10.37,2013-05-20 20:43:00,
2013-05-20 16:48:00,75.6,66.3,29.94,WSW,242,12.0,12.0,73,0.00,BKN,,0.03,WeatherDisplay:10.37,2013-05-20 20:48:00,
2013-05-20 16:54:00,75.5,66.6,29.94,SSW,202,12.7,12.7,74,0.00,BKN,,0.03,WeatherDisplay:10.37,2013-05-20 20:54:00,
2013-05-20 16:59:00,74.9,66.4,29.94,SW,225,17.3,17.3,75,0.00,BKN,,0.03,WeatherDisplay:10.37,2013-05-20 20:59:00,
2013-05-20 17:04:00,74.7,66.6,29.94,WSW,243,11.5,11.5,76,0.00,BKN,,0.03,WeatherDisplay:10.37,2013-05-20 21:04:00,
2013-05-20 17:09:00,74.8,66.3,29.94,SW,228,16.1,16.1,75,0.00,BKN,,0.03,WeatherDisplay:10.37,2013-05-20 21:09:00,
2013-05-20 17:14:00,74.8,66.7,29.94,WSW,242,14.0,14.0,76,0.00,BKN,,0.03,WeatherDisplay:10.37,2013-05-20 21:14:00,
2013-05-20 17:20:00,74.9,66.4,29.94,SSW,202,17.3,17.3,75,0.00,BKN,,0.03,WeatherDisplay:10.37,2013-05-20 21:20:00,
2013-05-20 17:25:00,75.1,67.0,29.94,SSW,210,9.2,9.2,76,0.00,BKN,,0.03,WeatherDisplay:10.37,2013-05-20 21:25:00,
2013-05-20 17:30:00,75.1,66.6,29.94,SW,229,12.0,17.0,75,0.00,BKN,,0.03,WeatherDisplay:10.37,2013-05-20 21:30:00,
2013-05-20 17:35:00,75.0,66.1,29.94,SSW,211,13.0,13.0,74,0.00,BKN,,0.03,WeatherDisplay:10.37,2013-05-20 21:35:00,
2013-05-20 17:40:00,75.0,66.1,29.94,SW,230,12.7,12.7,74,0.00,BKN,,0.03,WeatherDisplay:10.37,2013-05-20 21:40:00,
2013-05-20 17:45:00,74.9,66.1,29.94,SW,233,11.5,11.5,74,0.00,BKN,,0.03,WeatherDisplay:10.37,2013-05-20 21:45:00,
2013-05-20 17:51:00,75.0,66.1,29.94,WSW,241,12.7,12.7,74,0.00,BKN,,0.03,WeatherDisplay:10.37,2013-05-20 21:51:00,
2013-05-20 17:56:00,75.0,66.1,29.94,West,271,10.4,10.4,74,0.00,BKN,,0.03,WeatherDisplay:10.37,2013-05-20 21:56:00,
2013-05-20 18:01:00,74.9,66.1,29.94,SW,224,13.0,13.0,74,0.00,SCT,,0.03,WeatherDisplay:10.37,2013-05-20 22:01:00,
2013-05-20 18:06:00,74.9,66.1,29.94,SSW,207,12.7,12.7,74,0.00,SCT,,0.03,WeatherDisplay:10.37,2013-05-20 22:06:00,
2013-05-20 18:11:00,74.9,66.1,29.94,SW,227,9.2,9.2,74,0.00,SCT,,0.03,WeatherDisplay:10.37,2013-05-20 22:11:00,
2013-05-20 18:17:00,74.9,66.1,29.94,WNW,282,9.2,9.2,74,0.00,SCT,,0.03,WeatherDisplay:10.37,2013-05-20 22:17:00,
2013-05-20 18:22:00,74.9,66.4,29.95,WSW,254,6.0,6.0,75,0.00,SCT,,0.03,WeatherDisplay:10.37,2013-05-20 22:22:00,
2013-05-20 18:27:00,74.9,66.1,29.95,West,260,9.0,9.0,74,0.00,SCT,,0.03,WeatherDisplay:10.37,2013-05-20 22:27:00,
2013-05-20 18:32:00,74.8,66.3,29.95,West,260,11.5,11.5,75,0.00,SCT,,0.03,WeatherDisplay:10.37,2013-05-20 22:32:00,
2013-05-20 18:38:00,74.8,66.3,29.96,SW,236,11.5,11.5,75,0.00,SCT,,0.03,WeatherDisplay:10.37,2013-05-20 22:38:00,
2013-05-20 18:43:00,74.7,66.6,29.96,SSW,211,8.0,8.0,76,0.00,SCT,,0.03,WeatherDisplay:10.37,2013-05-20 22:43:00,
2013-05-20 18:48:00,74.6,66.9,29.96,SSW,209,8.1,8.1,77,0.00,SCT,,0.03,WeatherDisplay:10.37,2013-05-20 22:48:00,
2013-05-20 18:53:00,74.4,66.7,29.95,SSW,211,6.0,6.0,77,0.00,SCT,,0.03,WeatherDisplay:10.37,2013-05-20 22:53:00,
2013-05-20 18:58:00,74.2,66.9,29.96,SSW,204,8.0,8.0,78,0.00,SCT,,0.03,WeatherDisplay:10.37,2013-05-20 22:58:00,
2013-05-20 19:04:00,73.9,66.6,29.95,SW,221,3.5,3.5,78,0.00,SCT,,0.03,WeatherDisplay:10.37,2013-05-20 23:04:00,
2013-05-20 19:09:00,73.8,66.9,29.95,SW,229,6.9,6.9,79,0.00,SCT,,0.03,WeatherDisplay:10.37,2013-05-20 23:09:00,
2013-05-20 19:14:00,73.7,66.8,29.95,SSW,205,4.6,4.6,79,0.00,SCT,,0.03,WeatherDisplay:10.37,2013-05-20 23:14:00,
2013-05-20 19:19:00,73.7,67.1,29.94,SSW,195,7.0,7.0,80,0.00,SCT,,0.03,WeatherDisplay:10.37,2013-05-20 23:19:00,
2013-05-20 19:24:00,73.6,67.0,29.94,South,190,8.1,8.1,80,0.00,SCT,,0.03,WeatherDisplay:10.37,2013-05-20 23:24:00,
2013-05-20 19:29:00,73.4,66.9,29.94,South,176,10.4,10.4,80,0.00,SCT,,0.03,WeatherDisplay:10.37,2013-05-20 23:29:00,
2013-05-20 19:35:00,73.1,66.6,29.94,SSW,192,9.2,9.2,80,0.00,SCT,,0.03,WeatherDisplay:10.37,2013-05-20 23:35:00,
2013-05-20 19:40:00,72.9,66.7,29.94,SSW,194,6.9,6.9,81,0.00,SCT,,0.03,WeatherDisplay:10.37,2013-05-20 23:40:00,
2013-05-20 19:45:00,72.5,66.3,29.95,SSW,203,11.5,11.5,81,0.00,SCT,,0.03,WeatherDisplay:10.37,2013-05-20 23:45:00,
2013-05-20 19:50:00,72.1,66.3,29.94,South,191,9.0,9.0,82,0.00,SCT,,0.03,WeatherDisplay:10.37,2013-05-20 23:50:00,
2013-05-20 19:56:00,71.6,66.2,29.94,South,187,6.9,6.9,83,0.00,SCT,,0.03,WeatherDisplay:10.37,2013-05-20 23:56:00,
2013-05-20 20:01:00,71.2,65.8,29.95,South,189,11.5,11.5,83,0.00,BKN,,0.03,WeatherDisplay:10.37,2013-05-21 00:01:00,
2013-05-20 20:06:00,70.7,65.6,29.94,SW,216,11.5,11.5,84,0.00,BKN,,0.03,WeatherDisplay:10.37,2013-05-21 00:06:00,
2013-05-20 20:11:00,70.2,65.5,29.95,SW,220,11.5,11.5,85,0.00,BKN,,0.03,WeatherDisplay:10.37,2013-05-21 00:11:00,
2013-05-20 20:17:00,69.7,65.3,29.95,SSW,207,11.5,11.5,86,0.00,BKN,,0.03,WeatherDisplay:10.37,2013-05-21 00:17:00,
2013-05-20 20:22:00,69.5,65.1,29.95,SSW,195,9.2,9.2,86,0.00,BKN,,0.03,WeatherDisplay:10.37,2013-05-21 00:22:00,
2013-05-20 20:27:00,69.1,64.7,29.95,SSW,202,9.0,9.0,86,0.00,BKN,,0.03,WeatherDisplay:10.37,2013-05-21 00:27:00,
2013-05-20 20:32:00,68.7,64.7,29.95,SW,229,11.5,11.5,87,0.00,BKN,,0.03,WeatherDisplay:10.37,2013-05-21 00:32:00,
2013-05-20 20:37:00,68.2,64.5,29.95,SSW,209,12.7,12.7,88,0.00,BKN,,0.03,WeatherDisplay:10.37,2013-05-21 00:37:00,
2013-05-20 20:42:00,67.9,64.2,29.96,SW,223,13.8,13.8,88,0.00,BKN,,0.03,WeatherDisplay:10.37,2013-05-21 00:42:00,
2013-05-20 20:47:00,67.6,64.2,29.96,SSW,207,9.2,9.2,89,0.00,BKN,,0.03,WeatherDisplay:10.37,2013-05-21 00:47:00,
2013-05-20 20:52:00,67.4,64.0,29.97,SW,225,8.0,8.0,89,0.00,BKN,,0.03,WeatherDisplay:10.37,2013-05-21 00:52:00,
2013-05-20 20:58:00,67.2,64.2,29.97,SW,219,5.8,5.8,90,0.00,BKN,,0.03,WeatherDisplay:10.37,2013-05-21 00:58:00,
2013-05-20 21:03:00,67.1,64.1,29.97,SSW,210,3.5,3.5,90,0.00,BKN,,0.03,WeatherDisplay:10.37,2013-05-21 01:03:00,
2013-05-20 21:08:00,67.0,64.0,29.97,SSW,211,2.3,2.3,90,0.00,BKN,,0.03,WeatherDisplay:10.37,2013-05-21 01:08:00,
2013-05-20 21:13:00,66.9,64.2,29.97,SSW,205,5.0,5.0,91,0.00,BKN,,0.03,WeatherDisplay:10.37,2013-05-21 01:13:00,
2013-05-20 21:18:00,66.8,64.1,29.97,SSW,192,3.5,3.5,91,0.00,BKN,,0.03,WeatherDisplay:10.37,2013-05-21 01:18:00,
2013-05-20 21:24:00,66.7,64.0,29.97,SW,217,3.5,3.5,91,0.00,BKN,,0.03,WeatherDisplay:10.37,2013-05-21 01:24:00,
2013-05-20 21:29:00,66.6,63.9,29.97,SSW,212,3.5,3.5,91,0.00,BKN,,0.03,WeatherDisplay:10.37,2013-05-21 01:29:00,
2013-05-20 21:34:00,66.5,64.1,29.97,WSW,248,5.8,5.8,92,0.00,BKN,,0.03,WeatherDisplay:10.37,2013-05-21 01:34:00,
2013-05-20 21:39:00,66.5,64.1,29.97,WSW,248,3.5,3.5,92,0.00,BKN,,0.03,WeatherDisplay:10.37,2013-05-21 01:39:00,
2013-05-20 21:44:00,66.4,64.0,29.97,SW,218,3.5,3.5,92,0.00,BKN,,0.03,WeatherDisplay:10.37,2013-05-21 01:44:00,
2013-05-20 21:49:00,66.3,63.9,29.98,SSW,193,2.3,2.3,92,0.00,BKN,,0.03,WeatherDisplay:10.37,2013-05-21 01:49:00,
2013-05-20 21:54:00,66.3,63.9,29.98,SSW,193,1.1,0.0,92,0.00,BKN,,0.03,WeatherDisplay:10.37,2013-05-21 01:54:00,
2013-05-20 21:59:00,66.2,63.8,29.98,SSW,212,4.6,4.6,92,0.00,BKN,,0.03,WeatherDisplay:10.37,2013-05-21 01:59:00,
2013-05-20 22:04:00,66.2,63.8,29.97,SSW,212,4.0,4.0,92,0.00,CLR,,0.03,WeatherDisplay:10.37,2013-05-21 02:04:00,
2013-05-20 22:09:00,66.2,64.1,29.98,South,172,4.6,4.6,93,0.00,CLR,,0.03,WeatherDisplay:10.37,2013-05-21 02:09:00,
2013-05-20 22:15:00,66.2,64.1,29.97,South,180,3.5,3.5,93,0.00,CLR,,0.03,WeatherDisplay:10.37,2013-05-21 02:15:00,
2013-05-20 22:20:00,66.1,64.0,29.97,SW,215,6.9,6.9,93,0.00,CLR,,0.03,WeatherDisplay:10.37,2013-05-21 02:20:00,
2013-05-20 22:25:00,66.1,64.0,29.97,SW,220,5.8,5.8,93,0.00,CLR,,0.03,WeatherDisplay:10.37,2013-05-21 02:25:00,
2013-05-20 22:30:00,66.0,63.9,29.97,SW,225,4.6,4.6,93,0.00,CLR,,0.03,WeatherDisplay:10.37,2013-05-21 02:30:00,
2013-05-20 22:35:00,66.0,63.9,29.97,SW,225,2.3,2.3,93,0.00,CLR,,0.03,WeatherDisplay:10.37,2013-05-21 02:35:00,
2013-05-20 22:40:00,66.1,64.3,29.97,SW,217,1.0,1.0,94,0.00,CLR,,0.03,WeatherDisplay:10.37,2013-05-21 02:40:00,
2013-05-20 22:46:00,66.0,64.2,29.97,SW,217,0.0,0.0,94,0.00,CLR,,0.03,WeatherDisplay:10.37,2013-05-21 02:46:00,
2013-05-20 22:51:00,66.0,64.2,29.97,South,180,1.1,1.1,94,0.00,CLR,,0.03,WeatherDisplay:10.37,2013-05-21 02:51:00,
2013-05-20 22:56:00,66.0,64.2,29.97,South,180,0.0,0.0,94,0.00,CLR,,0.03,WeatherDisplay:10.37,2013-05-21 02:56:00,
2013-05-20 23:01:00,65.9,64.1,29.97,SW,234,3.5,3.5,94,0.00,CLR,,0.03,WeatherDisplay:10.37,2013-05-21 03:01:00,
2013-05-20 23:06:00,65.9,64.1,29.97,SW,232,2.0,2.0,94,0.00,CLR,,0.03,WeatherDisplay:10.37,2013-05-21 03:06:00,
2013-05-20 23:12:00,65.8,64.0,29.97,SW,232,0.0,0.0,94,0.00,CLR,,0.03,WeatherDisplay:10.37,2013-05-21 03:12:00,
2013-05-20 23:17:00,65.8,64.0,29.97,SW,232,0.0,0.0,94,0.00,CLR,,0.03,WeatherDisplay:10.37,2013-05-21 03:17:00,
2013-05-20 23:22:00,65.8,64.0,29.97,SW,232,0.0,0.0,94,0.00,CLR,,0.03,WeatherDisplay:10.37,2013-05-21 03:22:00,
2013-05-20 23:27:00,65.8,64.0,29.96,SW,232,0.0,0.0,94,0.00,CLR,,0.03,WeatherDisplay:10.37,2013-05-21 03:27:00,
2013-05-20 23:32:00,65.7,63.9,29.96,SW,232,0.0,0.0,94,0.00,CLR,,0.03,WeatherDisplay:10.37,2013-05-21 03:32:00,
2013-05-20 23:37:00,65.7,63.9,29.96,SW,232,0.0,0.0,94,0.00,CLR,,0.03,WeatherDisplay:10.37,2013-05-21 03:37:00,
2013-05-20 23:42:00,65.7,63.9,29.96,SW,232,1.0,0.0,94,0.00,CLR,,0.03,WeatherDisplay:10.37,2013-05-21 03:42:00,
2013-05-20 23:47:00,65.8,64.0,29.96,SW,232,0.0,0.0,94,0.00,CLR,,0.03,WeatherDisplay:10.37,2013-05-21 03:47:00,
2013-05-20 23:52:00,65.7,63.9,29.96,SW,232,0.0,0.0,94,0.00,CLR,,0.03,WeatherDisplay:10.37,2013-05-21 03:52:00,
2013-05-20 23:58:00,65.6,63.8,29.96,SW,232,0.0,0.0,94,0.00,CLR,,0.03,WeatherDisplay:10.37,2013-05-21 03:58:00,